Location: Sungai Dangang
(2.7500°N, 113.8333°E)
Time: 19:40:20
(UTC+00:00)

SJ 16-02 - Pass Details

Date: 16 May 2021
Orbit: 606 x 616 km, 75.0° (Epoch: 18 June)

Event Time Altitude Azimuth Distance (km) Brightness Sun altitude
Exits shadow 12:40:39 31° 278° (W) 1,081 3.0 -31.6°
Maximum altitude 12:40:46 31° 282° (WNW) 1,080 3.0 -31.6°
Drops below altitude 10° 12:44:40 10° 344° (NNW) 1,966 4.3 -32.5°
Sets 12:47:06 0° 355° (N) 2,869 5.1 -33.0°
